St. Johns, AZ

10:29 PM MST on October 16, 2017 (GMT -0700)
Saint Johns Industrial

Weather History for KSJN - July, 2013

Change the Weather History Date:

Monday, July 29, 2013

  Actual Average (KLSB) Record (KLSB)
Temperature  
Mean Temperature 68 °F -  
Max Temperature 86 °F 93 °F 98 °F (2016)
Min Temperature 51 °F 63 °F 64 °F (2014)
Cooling Degree Days 4    
Growing Degree Days 18 (Base 50)    
Moisture  
Dew Point 49 °F    
Average Humidity 47    
Maximum Humidity 95    
Minimum Humidity 22    
Precipitation  
Precipitation 0.08 in - - ()
Sea Level Pressure  
Sea Level Pressure 29.94 in    
Wind  
Wind Speed 7 mph (WSW)    
Max Wind Speed 17 mph    
Max Gust Speed 30 mph    
Visibility 10 miles    
Events      
Averages and records for this station are not official NWS values.
T = Trace of Precipitation, MM = Missing Value Source: NWS Daily Summary

Daily Weather History Graph

Daily Weather History Graph

Search for Another Location

Airport or City:

Trip Planner

Search our weather history database for the weather conditions in past years. The results will help you decide how hot, cold, wet, or windy it might be!

Date:

Astronomy

Jul. 29, 2013 Rise Set
Actual Time 5:25 AM MST 7:21 PM MST
Civil Twilight 4:58 AM MST 7:49 PM MST
Nautical Twilight 4:24 AM MST 8:22 PM MST
Astronomical Twilight 3:48 AM MST 8:58 PM MST
Moon 11:44 PM MST (7/29) 12:48 PM MST (7/29)
Length of Visible Light 14h 51m
Length of Day
13h 55m
Waning Gibbous, 50% of the Moon is Illuminated
Jul 29
Waning Gibbous
Aug 6
New
Aug 14
First Quarter
Aug 20
Full
Aug 28
Last Quarter

Hourly Weather History & Observations

Time (MST) Temp. Dew Point Humidity Pressure Visibility Wind Dir Wind Speed Gust Speed Precip Events Conditions
12:54 AM 64.0 °F 55.9 °F 75% 29.89 in 10.0 mi South 9.2 mph - N/A   Clear
1:54 AM 64.0 °F 55.0 °F 73% 29.87 in 10.0 mi South 6.9 mph - N/A   Clear
2:54 AM 61.0 °F 55.0 °F 81% 29.87 in 10.0 mi Calm Calm - N/A   Clear
3:54 AM 61.0 °F 55.0 °F 81% 29.87 in 10.0 mi South 3.5 mph - N/A   Clear
4:54 AM 60.1 °F 54.0 °F 80% 29.88 in 10.0 mi South 3.5 mph - N/A   Clear
5:54 AM 59.0 °F 54.0 °F 83% 29.92 in 10.0 mi NE 3.5 mph - N/A   Clear
6:54 AM 63.0 °F 55.0 °F 75% 29.93 in 10.0 mi Calm Calm - N/A   Clear
7:54 AM 69.1 °F 53.1 °F 57% 29.95 in 10.0 mi Calm Calm - N/A   Clear
8:54 AM 75.0 °F 51.1 °F 43% 29.94 in 10.0 mi NNW 4.6 mph - N/A   Clear
9:54 AM 79.0 °F 48.9 °F 35% 29.94 in 10.0 mi NNW 10.4 mph 18.4 mph N/A   Clear
10:54 AM 82.0 °F 48.0 °F 30% 29.94 in 10.0 mi SW 8.1 mph - N/A   Mostly Cloudy
11:54 AM 84.9 °F 45.0 °F 25% 29.93 in 10.0 mi West 11.5 mph 23.0 mph N/A   Partly Cloudy
12:54 PM 84.9 °F 44.1 °F 24% 29.92 in 10.0 mi West 17.3 mph 24.2 mph N/A   Mostly Cloudy
1:54 PM 86.0 °F 46.0 °F 25% 29.91 in 10.0 mi West 17.3 mph 29.9 mph N/A   Partly Cloudy
2:54 PM 87.1 °F 44.1 °F 22% 29.91 in 10.0 mi WSW 13.8 mph 25.3 mph N/A   Scattered Clouds
3:54 PM 86.0 °F 45.0 °F 24% 29.90 in 10.0 mi West 16.1 mph 27.6 mph N/A   Clear
4:54 PM 87.1 °F 46.0 °F 24% 29.89 in 10.0 mi WSW 17.3 mph 24.2 mph N/A   Clear
5:54 PM 86.0 °F 45.0 °F 24% 29.90 in 10.0 mi WSW 15.0 mph 20.7 mph N/A   Scattered Clouds
6:54 PM 82.9 °F 45.0 °F 26% 29.91 in 10.0 mi West 12.7 mph - N/A   Clear
7:54 PM 79.0 °F 45.0 °F 30% 29.92 in 10.0 mi WSW 8.1 mph - N/A   Clear
8:54 PM 75.0 °F 46.0 °F 36% 29.95 in 10.0 mi SW 8.1 mph - N/A   Clear
9:54 PM 73.0 °F 46.0 °F 38% 29.97 in 10.0 mi WSW 11.5 mph - N/A   Clear
10:54 PM 71.1 °F 45.0 °F 39% 29.98 in 10.0 mi SW 6.9 mph - N/A   Clear
11:54 PM 71.1 °F 44.1 °F 38% 29.98 in 10.0 mi SW 8.1 mph - N/A   Clear